Weather History for Albertville, AL

Change the Weather History Date:

Saturday, April 27, 2013

  Actual Average (KGAD) Record (KGAD)
Temperature  
Mean Temperature 66 °F -  
Max Temperature 77 °F 71 °F 90 °F (1942)
Min Temperature 55 °F 49 °F 37 °F (2001)
Cooling Degree Days 1    
Growing Degree Days 16 (Base 50)    
Moisture  
Dew Point 54 °F    
Average Humidity 73    
Maximum Humidity 100    
Minimum Humidity 41    
Precipitation  
Precipitation 0.07 in - - ()
Sea Level Pressure  
Sea Level Pressure 30.16 in    
Wind  
Wind Speed 8 mph (SE)    
Max Wind Speed 14 mph    
Max Gust Speed 26 mph    
Visibility 10 miles    
Events Rain , Thunderstorm    
Averages and records for this station are not official NWS values.
T = Trace of Precipitation, MM = Missing Value Source: NWS Daily Summary

Daily Weather History Graph

Daily Weather History Graph

Search for Another Location

Airport:

Trip Planner

Search our weather history database for the weather conditions in past years. The results will help you decide how hot, cold, wet, or windy it might be!

Date:

Astronomy

Apr. 27, 2013 Rise Set
Actual Time 5:59 AM CDT 7:26 PM CDT
Civil Twilight 5:32 AM CDT 7:52 PM CDT
Nautical Twilight 5:01 AM CDT 8:24 PM CDT
Astronomical Twilight 4:28 AM CDT 8:57 PM CDT
Moon 9:50 PM CDT (4/27) 7:21 AM CDT (4/27)
Length of Visible Light 14h 19m
Length of Day
13h 26m
Waning Gibbous, 95% of the Moon is Illuminated
Apr 27
Waning Gibbous
May 2
Last Quarter
May 9
New
May 17
First Quarter
May 24
Full

Hourly Weather History & Observations

Time (CDT) Temp. Dew Point Humidity Pressure Visibility Wind Dir Wind Speed Gust Speed Precip Events Conditions
12:15 AM 60.8 °F 42.8 °F 52% 30.26 in 10.0 mi East 6.9 mph - N/A   Overcast
12:35 AM 60.8 °F 42.8 °F 52% 30.30 in 10.0 mi NNW 5.8 mph - N/A   Overcast
12:55 AM 59.0 °F 44.6 °F 59% 30.28 in 10.0 mi ENE 6.9 mph - N/A Rain Light Rain
1:15 AM 59.0 °F 46.4 °F 63% 30.27 in 10.0 mi East 5.8 mph - N/A   Overcast
1:35 AM 57.2 °F 46.4 °F 67% 30.24 in 10.0 mi East 9.2 mph - N/A   Overcast
1:55 AM 59.0 °F 46.4 °F 63% 30.25 in 10.0 mi ENE 4.6 mph - N/A   Overcast
2:15 AM 59.0 °F 46.4 °F 63% 30.24 in 10.0 mi East 5.8 mph - N/A   Overcast
2:35 AM 59.0 °F 46.4 °F 63% 30.25 in 10.0 mi East 8.1 mph - N/A   Overcast
2:55 AM 59.0 °F 46.4 °F 63% 30.24 in 10.0 mi East 9.2 mph - N/A   Overcast
3:15 AM 59.0 °F 46.4 °F 63% 30.24 in 10.0 mi East 8.1 mph - N/A   Overcast
3:35 AM 59.0 °F 46.4 °F 63% 30.24 in 10.0 mi East 9.2 mph - N/A   Overcast
3:55 AM 59.0 °F 46.4 °F 63% 30.24 in 10.0 mi East 11.5 mph - N/A   Overcast
4:15 AM 59.0 °F 46.4 °F 63% 30.21 in 10.0 mi East 13.8 mph 18.4 mph N/A   Overcast
4:35 AM 59.0 °F 46.4 °F 63% 30.21 in 10.0 mi East 10.4 mph 18.4 mph N/A   Overcast
4:55 AM 57.2 °F 46.4 °F 67% 30.22 in 10.0 mi East 11.5 mph 16.1 mph N/A   Overcast
5:15 AM 57.2 °F 48.2 °F 72% 30.24 in 10.0 mi ENE 4.6 mph - N/A   Overcast
6:15 AM 55.4 °F 51.8 °F 88% 30.20 in 10.0 mi East 8.1 mph - N/A   Overcast
6:35 AM 55.4 °F 51.8 °F 88% 30.22 in 10.0 mi East 6.9 mph - N/A   Overcast
6:55 AM 55.4 °F 51.8 °F 88% 30.22 in 10.0 mi East 9.2 mph 16.1 mph N/A   Overcast
7:15 AM 55.4 °F 51.8 °F 88% 30.22 in 10.0 mi ESE 9.2 mph - N/A   Overcast
7:35 AM 55.4 °F 51.8 °F 88% 30.21 in 10.0 mi ESE 8.1 mph - N/A   Overcast
7:55 AM 55.4 °F 51.8 °F 88% 30.20 in 10.0 mi ESE 6.9 mph - N/A   Mostly Cloudy
8:15 AM 57.2 °F 51.8 °F 82% 30.20 in 10.0 mi SE 6.9 mph - N/A   Mostly Cloudy
8:35 AM 59.0 °F 51.8 °F 77% 30.20 in 10.0 mi ESE 8.1 mph - N/A   Overcast
8:55 AM 59.0 °F 51.8 °F 77% 30.19 in 10.0 mi SE 9.2 mph 16.1 mph N/A   Overcast
9:15 AM 60.8 °F 51.8 °F 72% 30.20 in 10.0 mi SE 5.8 mph - N/A   Overcast
9:55 AM 60.8 °F 53.6 °F 77% 30.21 in 10.0 mi SE 6.9 mph - N/A   Overcast
10:15 AM 62.6 °F 53.6 °F 72% 30.19 in 10.0 mi SSE 10.4 mph 16.1 mph N/A   Overcast
10:35 AM 64.4 °F 53.6 °F 68% 30.20 in 10.0 mi SSE 5.8 mph 17.3 mph N/A   Scattered Clouds
10:55 AM 64.4 °F 53.6 °F 68% 30.20 in 10.0 mi SSE 9.2 mph - N/A   Mostly Cloudy
11:15 AM 66.2 °F 55.4 °F 68% 30.20 in 10.0 mi SSE 11.5 mph 16.1 mph N/A   Mostly Cloudy
11:35 AM 68.0 °F 55.4 °F 64% 30.20 in 10.0 mi SSE 9.2 mph - N/A   Overcast
11:55 AM 69.8 °F 55.4 °F 60% 30.19 in 10.0 mi SSE 8.1 mph - N/A   Mostly Cloudy
12:15 PM 69.8 °F 55.4 °F 60% 30.19 in 10.0 mi South 9.2 mph 17.3 mph N/A   Scattered Clouds
12:35 PM 71.6 °F 55.4 °F 57% 30.17 in 10.0 mi South 12.7 mph 19.6 mph N/A   Scattered Clouds
12:55 PM 73.4 °F 53.6 °F 50% 30.17 in 10.0 mi SSE 10.4 mph - N/A   Scattered Clouds
1:15 PM 73.4 °F 51.8 °F 47% 30.16 in 10.0 mi SSE 10.4 mph 19.6 mph N/A   Clear
1:35 PM 73.4 °F 51.8 °F 47% 30.16 in 10.0 mi South 12.7 mph 20.7 mph N/A   Scattered Clouds
1:55 PM 75.2 °F 53.6 °F 47% 30.15 in 10.0 mi South 13.8 mph 23.0 mph N/A   Scattered Clouds
2:15 PM 77.0 °F 51.8 °F 41% 30.14 in 10.0 mi South 10.4 mph 18.4 mph N/A   Scattered Clouds
2:35 PM 73.4 °F 51.8 °F 47% 30.14 in 10.0 mi South 11.5 mph 18.4 mph N/A   Mostly Cloudy
2:55 PM 73.4 °F 51.8 °F 47% 30.12 in 10.0 mi South 9.2 mph 18.4 mph N/A   Overcast
3:15 PM 73.4 °F 51.8 °F 47% 30.12 in 10.0 mi South 10.4 mph 17.3 mph N/A   Mostly Cloudy
3:35 PM 73.4 °F 51.8 °F 47% 30.11 in 10.0 mi South 10.4 mph - N/A   Mostly Cloudy
3:55 PM 73.4 °F 53.6 °F 50% 30.12 in 10.0 mi South 9.2 mph - N/A   Overcast
4:15 PM 71.6 °F 53.6 °F 53% 30.11 in 10.0 mi South 9.2 mph - N/A   Overcast
4:35 PM 71.6 °F 55.4 °F 57% 30.10 in 10.0 mi SSE 6.9 mph - N/A   Overcast
4:55 PM 69.8 °F 57.2 °F 64% 30.09 in 10.0 mi SE 4.6 mph - N/A Rain Light Rain
5:15 PM 68.0 °F 59.0 °F 73% 30.09 in 10.0 mi Calm Calm - N/A Rain Light Rain
5:55 PM 68.0 °F 59.0 °F 73% 30.07 in 10.0 mi SE 6.9 mph - N/A Rain Light Rain
6:15 PM 66.2 °F 60.8 °F 83% 30.07 in 10.0 mi East 3.5 mph - N/A   Overcast
6:35 PM 66.2 °F 60.8 °F 83% 30.09 in 10.0 mi East 3.5 mph - N/A Thunderstorm Overcast
6:55 PM 64.4 °F 64.4 °F 100% 30.09 in 7.0 mi East 5.8 mph - 0.01 in Rain Rain
7:35 PM 64.4 °F 64.4 °F 100% 30.05 in 7.0 mi ESE 5.8 mph - 0.04 in Rain Light Rain
7:55 PM 62.6 °F 62.6 °F 100% 30.04 in 7.0 mi SSE 11.5 mph 18.4 mph 0.04 in Rain Light Rain
8:15 PM 64.4 °F 64.4 °F 100% 30.03 in 10.0 mi South 11.5 mph 26.5 mph N/A Rain , Thunderstorm Light Thunderstorms and Rain
8:35 PM 64.4 °F 64.4 °F 100% 30.04 in 10.0 mi SSE 8.1 mph 16.1 mph 0.01 in Rain , Thunderstorm Light Thunderstorms and Rain
8:55 PM 64.4 °F 64.4 °F 100% 30.07 in 10.0 mi SSW 4.6 mph - 0.01 in Rain , Thunderstorm Light Thunderstorms and Rain
9:15 PM 64.4 °F 64.4 °F 100% 30.07 in 10.0 mi South 5.8 mph - 0.01 in Rain , Thunderstorm Light Thunderstorms and Rain
9:35 PM 64.4 °F 64.4 °F 100% 30.06 in 10.0 mi SSE 8.1 mph - 0.01 in   Drizzle
9:55 PM 62.6 °F 62.6 °F 100% 30.05 in 10.0 mi SSE 8.1 mph - 0.01 in   Light Drizzle
10:15 PM 62.6 °F 62.6 °F 100% 30.06 in 10.0 mi SE 9.2 mph - N/A   Overcast
10:35 PM 60.8 °F 60.8 °F 100% 30.06 in 10.0 mi SE 5.8 mph 16.1 mph N/A   Overcast
10:55 PM 60.8 °F 60.8 °F 100% 30.06 in 10.0 mi ESE 10.4 mph - N/A   Overcast
11:15 PM 60.8 °F 60.8 °F 100% 30.06 in 10.0 mi SE 10.4 mph - N/A   Overcast
11:35 PM 60.8 °F 60.8 °F 100% 30.06 in 10.0 mi ESE 10.4 mph 20.7 mph N/A   Mostly Cloudy
11:55 PM 60.8 °F 60.8 °F 100% 30.06 in 10.0 mi ESE 10.4 mph 17.3 mph N/A   Light Drizzle